Time,TemperatureF,DewpointF,PressureIn,WindDirection,WindDirectionDegrees,WindSpeedMPH,WindSpeedGustMPH,Humidity,HourlyPrecipIn,Conditions,Clouds,dailyrainin,SoftwareType,DateUTC
2013-07-13 00:01:00,71.4,68.0,29.59,SW,225,0.0,0.0,89,0.00,,,0.00,VWS V14.01,2013-07-13 04:01:00,
2013-07-13 00:02:00,71.4,68.0,29.59,West,270,0.0,0.0,89,0.00,,,0.00,VWS V14.01,2013-07-13 04:02:00,
2013-07-13 00:07:00,71.4,68.0,29.59,West,270,0.0,0.0,89,0.00,,,0.00,VWS V14.01,2013-07-13 04:07:00,
2013-07-13 00:12:00,71.4,68.0,29.59,WSW,248,0.0,0.0,89,0.00,,,0.00,VWS V14.01,2013-07-13 04:12:00,
2013-07-13 00:17:00,71.4,68.0,29.59,WSW,248,0.0,0.0,89,0.00,,,0.00,VWS V14.01,2013-07-13 04:17:00,
2013-07-13 00:23:00,71.2,67.8,29.59,WSW,248,0.0,0.0,89,0.00,,,0.00,VWS V14.01,2013-07-13 04:23:00,
2013-07-13 00:28:00,71.2,68.2,29.59,WSW,248,0.0,0.0,90,0.00,,,0.00,VWS V14.01,2013-07-13 04:28:00,
2013-07-13 00:33:00,71.2,68.2,29.59,WSW,248,0.0,0.0,90,0.00,,,0.00,VWS V14.01,2013-07-13 04:33:00,
2013-07-13 00:38:00,71.2,68.2,29.59,WSW,248,0.0,0.0,90,0.00,,,0.00,VWS V14.01,2013-07-13 04:38:00,
2013-07-13 00:43:00,71.2,68.2,29.59,WSW,248,0.0,0.0,90,0.00,,,0.00,VWS V14.01,2013-07-13 04:43:00,
2013-07-13 00:48:00,71.2,68.2,29.59,SW,225,0.0,0.0,90,0.00,,,0.00,VWS V14.01,2013-07-13 04:48:00,
2013-07-13 00:53:00,71.1,68.0,29.59,West,270,0.0,0.0,90,0.00,,,0.00,VWS V14.01,2013-07-13 04:53:00,
2013-07-13 00:58:00,71.1,68.0,29.59,West,270,0.0,0.0,90,0.00,,,0.00,VWS V14.01,2013-07-13 04:58:00,
2013-07-13 01:03:00,70.9,67.8,29.59,West,270,0.0,0.0,90,0.00,,,0.00,VWS V14.01,2013-07-13 05:03:00,
2013-07-13 01:08:00,70.9,67.8,29.59,West,270,0.0,0.0,90,0.00,,,0.00,VWS V14.01,2013-07-13 05:08:00,
2013-07-13 01:13:00,70.9,67.8,29.59,West,270,0.0,0.0,90,0.00,,,0.00,VWS V14.01,2013-07-13 05:13:00,
2013-07-13 01:18:00,70.9,67.8,29.59,West,270,0.0,0.0,90,0.00,,,0.00,VWS V14.01,2013-07-13 05:18:00,
2013-07-13 01:23:00,70.9,67.8,29.59,WNW,292,0.0,0.0,90,0.00,,,0.00,VWS V14.01,2013-07-13 05:23:00,
2013-07-13 01:28:00,70.7,67.6,29.59,WNW,292,0.0,0.0,90,0.00,,,0.00,VWS V14.01,2013-07-13 05:28:00,
2013-07-13 01:33:00,70.7,67.6,29.59,WNW,292,0.0,0.0,90,0.00,,,0.00,VWS V14.01,2013-07-13 05:33:00,
2013-07-13 01:38:00,70.7,67.6,29.56,West,270,0.0,0.0,90,0.00,,,0.00,VWS V14.01,2013-07-13 05:38:00,
2013-07-13 01:43:00,70.7,67.6,29.56,West,270,0.0,0.0,90,0.00,,,0.00,VWS V14.01,2013-07-13 05:43:00,
2013-07-13 01:48:00,70.9,67.8,29.56,West,270,0.0,0.0,90,0.00,,,0.00,VWS V14.01,2013-07-13 05:48:00,
2013-07-13 01:53:00,70.9,67.8,29.59,West,270,0.0,0.0,90,0.00,,,0.00,VWS V14.01,2013-07-13 05:53:00,
2013-07-13 01:58:00,70.7,67.6,29.59,West,270,0.0,0.0,90,0.00,,,0.00,VWS V14.01,2013-07-13 05:58:00,
2013-07-13 02:03:00,70.7,67.9,29.59,West,270,0.0,0.0,91,0.00,,,0.00,VWS V14.01,2013-07-13 06:03:00,
2013-07-13 02:08:00,70.7,67.9,29.59,WNW,292,0.0,0.0,91,0.00,,,0.00,VWS V14.01,2013-07-13 06:08:00,
2013-07-13 02:13:00,70.7,67.9,29.59,WNW,292,0.0,0.0,91,0.00,,,0.00,VWS V14.01,2013-07-13 06:13:00,
2013-07-13 02:19:00,70.7,67.9,29.59,WNW,292,0.0,0.0,91,0.00,,,0.00,VWS V14.01,2013-07-13 06:19:00,
2013-07-13 02:24:00,70.7,67.9,29.59,WNW,292,0.0,0.0,91,0.00,,,0.00,VWS V14.01,2013-07-13 06:24:00,
2013-07-13 02:29:00,70.7,67.9,29.59,WNW,292,0.0,0.0,91,0.00,,,0.00,VWS V14.01,2013-07-13 06:29:00,
2013-07-13 02:34:00,70.5,67.8,29.59,NW,315,0.0,0.0,91,0.00,,,0.00,VWS V14.01,2013-07-13 06:34:00,
2013-07-13 02:39:00,70.7,67.9,29.59,NW,315,0.0,0.0,91,0.00,,,0.00,VWS V14.01,2013-07-13 06:39:00,
2013-07-13 02:44:00,70.7,67.9,29.59,SW,225,0.0,0.0,91,0.00,,,0.00,VWS V14.01,2013-07-13 06:44:00,
2013-07-13 02:49:00,70.7,67.9,29.59,WSW,248,0.0,0.0,91,0.00,,,0.00,VWS V14.01,2013-07-13 06:49:00,
2013-07-13 02:54:00,70.7,67.9,29.59,WSW,248,0.0,0.0,91,0.00,,,0.00,VWS V14.01,2013-07-13 06:54:00,
2013-07-13 02:59:00,70.7,67.9,29.59,WSW,248,0.0,0.0,91,0.00,,,0.00,VWS V14.01,2013-07-13 06:59:00,
2013-07-13 03:04:00,70.7,67.9,29.59,WSW,248,0.0,0.0,91,0.00,,,0.00,VWS V14.01,2013-07-13 07:04:00,
2013-07-13 03:09:00,70.9,68.1,29.59,WSW,248,0.0,0.0,91,0.00,,,0.00,VWS V14.01,2013-07-13 07:09:00,
2013-07-13 03:14:00,70.7,67.9,29.59,WNW,292,0.0,0.0,91,0.00,,,0.00,VWS V14.01,2013-07-13 07:14:00,
2013-07-13 03:19:00,70.9,68.1,29.59,WSW,248,0.0,0.0,91,0.00,,,0.00,VWS V14.01,2013-07-13 07:19:00,
2013-07-13 03:24:00,70.9,68.1,29.59,WSW,248,0.0,0.0,91,0.00,,,0.00,VWS V14.01,2013-07-13 07:24:00,
2013-07-13 03:29:00,70.9,68.1,29.59,West,270,0.0,0.0,91,0.00,,,0.00,VWS V14.01,2013-07-13 07:29:00,
2013-07-13 03:34:00,70.9,68.1,29.59,West,270,0.0,0.0,91,0.00,,,0.00,VWS V14.01,2013-07-13 07:34:00,
2013-07-13 03:39:00,71.1,68.3,29.59,WSW,248,0.0,0.0,91,0.00,,,0.00,VWS V14.01,2013-07-13 07:39:00,
2013-07-13 03:44:00,71.1,68.3,29.59,WSW,248,0.0,0.0,91,0.00,,,0.00,VWS V14.01,2013-07-13 07:44:00,
2013-07-13 03:49:00,71.1,68.3,29.59,North,0,0.0,0.0,91,0.00,,,0.00,VWS V14.01,2013-07-13 07:49:00,
2013-07-13 03:54:00,70.9,68.1,29.59,West,270,0.0,0.0,91,0.00,,,0.00,VWS V14.01,2013-07-13 07:54:00,
2013-07-13 03:59:00,71.1,68.3,29.59,West,270,0.0,0.0,91,0.00,,,0.00,VWS V14.01,2013-07-13 07:59:00,
2013-07-13 04:04:00,71.1,68.3,29.59,West,270,0.0,0.0,91,0.00,,,0.00,VWS V14.01,2013-07-13 08:04:00,
2013-07-13 04:09:00,71.1,68.3,29.59,West,270,0.0,0.0,91,0.00,,,0.00,VWS V14.01,2013-07-13 08:09:00,
2013-07-13 04:14:00,71.1,68.3,29.59,West,270,0.0,0.0,91,0.00,,,0.00,VWS V14.01,2013-07-13 08:14:00,
2013-07-13 04:20:00,71.1,68.3,29.59,West,270,0.0,0.0,91,0.00,,,0.00,VWS V14.01,2013-07-13 08:20:00,
2013-07-13 04:25:00,71.2,68.5,29.59,West,270,0.0,0.0,91,0.00,,,0.00,VWS V14.01,2013-07-13 08:25:00,
2013-07-13 04:30:00,71.2,68.5,29.59,West,270,0.0,0.0,91,0.00,,,0.00,VWS V14.01,2013-07-13 08:30:00,
2013-07-13 04:35:00,71.1,68.6,29.59,WNW,292,0.0,0.0,92,0.00,,,0.00,VWS V14.01,2013-07-13 08:35:00,
2013-07-13 04:40:00,71.1,68.6,29.59,WNW,292,0.0,0.0,92,0.00,,,0.00,VWS V14.01,2013-07-13 08:40:00,
2013-07-13 04:45:00,71.1,68.3,29.59,West,270,0.0,0.0,91,0.00,,,0.00,VWS V14.01,2013-07-13 08:45:00,
2013-07-13 04:50:00,71.1,68.6,29.59,WNW,292,0.0,0.0,92,0.00,,,0.00,VWS V14.01,2013-07-13 08:50:00,
2013-07-13 04:55:00,71.1,68.6,29.59,West,270,0.0,0.0,92,0.00,,,0.00,VWS V14.01,2013-07-13 08:55:00,
2013-07-13 05:00:00,71.2,68.5,29.59,West,270,0.0,0.0,91,0.00,,,0.00,VWS V14.01,2013-07-13 09:00:00,
2013-07-13 05:05:00,71.2,68.8,29.59,West,270,0.0,0.0,92,0.00,,,0.00,VWS V14.01,2013-07-13 09:05:00,
2013-07-13 05:10:00,71.2,68.8,29.59,West,270,0.0,0.0,92,0.00,,,0.00,VWS V14.01,2013-07-13 09:10:00,
2013-07-13 05:15:00,71.2,68.8,29.59,West,270,0.0,0.0,92,0.00,,,0.00,VWS V14.01,2013-07-13 09:15:00,
2013-07-13 05:20:00,71.2,68.8,29.59,West,270,0.0,0.0,92,0.00,,,0.00,VWS V14.01,2013-07-13 09:20:00,
2013-07-13 05:25:00,71.2,68.8,29.59,West,270,0.0,0.0,92,0.00,,,0.00,VWS V14.01,2013-07-13 09:25:00,
2013-07-13 05:30:00,71.2,68.8,29.59,West,270,0.0,0.0,92,0.00,,,0.00,VWS V14.01,2013-07-13 09:30:00,
2013-07-13 05:35:00,71.1,68.6,29.59,West,270,0.0,0.0,92,0.00,,,0.00,VWS V14.01,2013-07-13 09:35:00,
2013-07-13 05:40:00,71.1,68.6,29.59,West,270,0.0,0.0,92,0.00,,,0.00,VWS V14.01,2013-07-13 09:40:00,
2013-07-13 05:45:00,71.1,68.6,29.59,NW,315,0.0,0.0,92,0.00,,,0.00,VWS V14.01,2013-07-13 09:45:00,
2013-07-13 05:50:00,71.1,68.6,29.59,NW,315,0.0,0.0,92,0.00,,,0.00,VWS V14.01,2013-07-13 09:50:00,
2013-07-13 05:55:00,71.2,68.8,29.59,NW,315,0.0,0.0,92,0.00,,,0.00,VWS V14.01,2013-07-13 09:55:00,
2013-07-13 06:00:00,71.2,68.8,29.59,NW,315,0.0,0.0,92,0.00,,,0.00,VWS V14.01,2013-07-13 10:00:00,
2013-07-13 06:05:00,71.1,68.6,29.59,WNW,292,0.0,0.0,92,0.00,,,0.00,VWS V14.01,2013-07-13 10:05:00,
2013-07-13 06:10:00,71.1,68.6,29.59,WNW,292,0.0,0.0,92,0.00,,,0.00,VWS V14.01,2013-07-13 10:10:00,
2013-07-13 06:15:00,71.1,68.6,29.59,NW,315,0.0,0.0,92,0.00,,,0.00,VWS V14.01,2013-07-13 10:15:00,
2013-07-13 06:21:00,71.1,68.6,29.59,NW,315,0.0,0.0,92,0.00,,,0.00,VWS V14.01,2013-07-13 10:21:00,
2013-07-13 06:26:00,71.1,68.6,29.62,NNW,338,0.0,0.0,92,0.00,,,0.00,VWS V14.01,2013-07-13 10:26:00,
2013-07-13 06:31:00,71.2,68.8,29.62,West,270,0.0,0.0,92,0.00,,,0.00,VWS V14.01,2013-07-13 10:31:00,
2013-07-13 06:36:00,71.2,68.8,29.62,WSW,248,0.0,0.0,92,0.00,,,0.00,VWS V14.01,2013-07-13 10:36:00,
2013-07-13 06:41:00,71.2,68.8,29.62,WNW,292,0.0,0.0,92,0.00,,,0.00,VWS V14.01,2013-07-13 10:41:00,
2013-07-13 06:46:00,71.2,68.8,29.62,West,270,0.0,0.0,92,0.00,,,0.00,VWS V14.01,2013-07-13 10:46:00,
2013-07-13 06:51:00,71.2,69.1,29.62,West,270,0.0,0.0,93,0.00,,,0.00,VWS V14.01,2013-07-13 10:51:00,
2013-07-13 06:56:00,71.2,69.1,29.62,WSW,248,0.0,0.0,93,0.00,,,0.00,VWS V14.01,2013-07-13 10:56:00,
2013-07-13 07:01:00,71.2,69.1,29.62,West,270,0.0,0.0,93,0.00,,,0.00,VWS V14.01,2013-07-13 11:01:00,
2013-07-13 07:06:00,71.4,69.3,29.62,West,270,0.0,0.0,93,0.00,,,0.00,VWS V14.01,2013-07-13 11:06:00,
2013-07-13 07:11:00,71.4,69.3,29.62,WNW,292,0.0,0.0,93,0.00,,,0.00,VWS V14.01,2013-07-13 11:11:00,
2013-07-13 07:16:00,71.4,69.3,29.62,NW,315,0.0,0.0,93,0.00,,,0.00,VWS V14.01,2013-07-13 11:16:00,
2013-07-13 07:21:00,71.4,69.3,29.62,West,270,0.0,0.0,93,0.00,,,0.00,VWS V14.01,2013-07-13 11:21:00,
2013-07-13 07:26:00,71.6,69.2,29.62,WNW,292,0.0,0.0,92,0.00,,,0.00,VWS V14.01,2013-07-13 11:26:00,
2013-07-13 07:31:00,71.6,69.2,29.62,West,270,0.0,0.0,92,0.00,,,0.00,VWS V14.01,2013-07-13 11:31:00,
2013-07-13 07:36:00,71.6,69.2,29.62,WSW,248,0.0,0.0,92,0.00,,,0.00,VWS V14.01,2013-07-13 11:36:00,
2013-07-13 07:41:00,71.6,69.2,29.65,WNW,292,0.0,0.0,92,0.00,,,0.00,VWS V14.01,2013-07-13 11:41:00,
2013-07-13 07:46:00,71.8,69.3,29.65,West,270,0.0,0.0,92,0.00,,,0.00,VWS V14.01,2013-07-13 11:46:00,
2013-07-13 07:51:00,71.6,69.2,29.65,WNW,292,0.0,0.0,92,0.00,,,0.00,VWS V14.01,2013-07-13 11:51:00,
2013-07-13 07:56:00,71.8,69.3,29.65,West,270,0.0,0.0,92,0.00,,,0.00,VWS V14.01,2013-07-13 11:56:00,
2013-07-13 08:01:00,71.8,69.3,29.65,NNW,338,0.0,0.0,92,0.00,,,0.00,VWS V14.01,2013-07-13 12:01:00,
2013-07-13 08:06:00,72.0,69.5,29.65,West,270,0.0,0.0,92,0.00,,,0.00,VWS V14.01,2013-07-13 12:06:00,
2013-07-13 08:12:00,72.0,69.5,29.65,WSW,248,0.0,0.0,92,0.00,,,0.00,VWS V14.01,2013-07-13 12:12:00,
2013-07-13 08:17:00,72.0,69.5,29.65,NW,315,0.0,0.0,92,0.00,,,0.00,VWS V14.01,2013-07-13 12:17:00,
2013-07-13 08:22:00,72.0,69.5,29.65,North,0,0.0,0.0,92,0.00,,,0.00,VWS V14.01,2013-07-13 12:22:00,
2013-07-13 08:27:00,72.1,69.7,29.65,WSW,248,0.0,0.0,92,0.00,,,0.00,VWS V14.01,2013-07-13 12:27:00,
2013-07-13 08:32:00,72.1,69.7,29.65,SW,225,0.0,0.0,92,0.00,,,0.00,VWS V14.01,2013-07-13 12:32:00,
2013-07-13 08:37:00,72.1,69.7,29.65,NNW,338,0.0,0.0,92,0.00,,,0.00,VWS V14.01,2013-07-13 12:37:00,
2013-07-13 08:42:00,72.1,69.7,29.65,North,0,0.0,0.0,92,0.00,,,0.00,VWS V14.01,2013-07-13 12:42:00,
2013-07-13 08:47:00,72.1,69.7,29.65,West,270,0.0,0.0,92,0.00,,,0.00,VWS V14.01,2013-07-13 12:47:00,
2013-07-13 08:52:00,72.3,69.9,29.65,West,270,0.0,0.0,92,0.00,,,0.00,VWS V14.01,2013-07-13 12:52:00,
2013-07-13 08:57:00,72.3,69.9,29.65,North,0,0.0,0.0,92,0.00,,,0.00,VWS V14.01,2013-07-13 12:57:00,
2013-07-13 09:02:00,72.5,70.1,29.65,WSW,248,0.0,0.0,92,0.00,,,0.00,VWS V14.01,2013-07-13 13:02:00,
2013-07-13 09:07:00,72.7,70.2,29.65,NNW,338,0.0,0.0,92,0.00,,,0.00,VWS V14.01,2013-07-13 13:07:00,
2013-07-13 09:12:00,72.7,70.2,29.65,NW,315,0.0,0.0,92,0.00,,,0.00,VWS V14.01,2013-07-13 13:12:00,
2013-07-13 09:17:00,72.7,70.2,29.65,NNW,338,0.0,0.0,92,0.00,,,0.00,VWS V14.01,2013-07-13 13:17:00,
2013-07-13 09:18:00,72.7,70.2,29.65,North,0,0.0,0.0,92,0.00,,,0.00,VWS V14.01,2013-07-13 13:18:00,
2013-07-13 09:23:00,72.7,70.2,29.68,SW,225,0.0,0.0,92,0.00,,,0.00,VWS V14.01,2013-07-13 13:23:00,
2013-07-13 09:28:00,72.7,70.2,29.68,NW,315,0.0,0.0,92,0.00,,,0.00,VWS V14.01,2013-07-13 13:28:00,
2013-07-13 09:33:00,72.9,70.4,29.68,West,270,0.0,0.0,92,0.00,,,0.00,VWS V14.01,2013-07-13 13:33:00,
2013-07-13 09:38:00,73.0,70.6,29.68,WSW,248,0.0,0.0,92,0.00,,,0.00,VWS V14.01,2013-07-13 13:38:00,
2013-07-13 09:43:00,73.2,70.8,29.68,NW,315,0.0,0.0,92,0.00,,,0.00,VWS V14.01,2013-07-13 13:43:00,
2013-07-13 09:48:00,73.2,70.8,29.68,North,0,0.0,0.0,92,0.00,,,0.00,VWS V14.01,2013-07-13 13:48:00,
2013-07-13 09:53:00,73.2,70.8,29.68,NNW,338,0.0,0.0,92,0.00,,,0.00,VWS V14.01,2013-07-13 13:53:00,
2013-07-13 09:58:00,73.2,70.8,29.68,NW,315,0.0,0.0,92,0.00,,,0.00,VWS V14.01,2013-07-13 13:58:00,
2013-07-13 10:03:00,73.2,70.8,29.68,SW,225,0.0,0.0,92,0.00,,,0.00,VWS V14.01,2013-07-13 14:03:00,
2013-07-13 10:09:00,73.4,70.9,29.68,WNW,292,0.0,0.0,92,0.00,,,0.00,VWS V14.01,2013-07-13 14:09:00,
2013-07-13 10:14:00,73.4,70.9,29.68,NNW,338,0.0,0.0,92,0.00,,,0.00,VWS V14.01,2013-07-13 14:14:00,
2013-07-13 10:19:00,73.6,70.8,29.68,NW,315,0.0,0.0,91,0.00,,,0.00,VWS V14.01,2013-07-13 14:19:00,
2013-07-13 10:24:00,73.9,71.2,29.68,WSW,248,0.0,0.0,91,0.00,,,0.00,VWS V14.01,2013-07-13 14:24:00,
2013-07-13 10:29:00,73.9,71.2,29.68,SW,225,0.0,0.0,91,0.00,,,0.00,VWS V14.01,2013-07-13 14:29:00,
2013-07-13 10:34:00,74.1,71.3,29.68,West,270,0.0,0.0,91,0.00,,,0.00,VWS V14.01,2013-07-13 14:34:00,
2013-07-13 10:39:00,74.3,71.5,29.68,North,0,0.0,0.0,91,0.00,,,0.00,VWS V14.01,2013-07-13 14:39:00,
2013-07-13 10:44:00,74.3,71.5,29.68,West,270,0.0,0.0,91,0.00,,,0.00,VWS V14.01,2013-07-13 14:44:00,
2013-07-13 10:49:00,74.3,71.5,29.68,WNW,292,0.0,0.0,91,0.00,,,0.00,VWS V14.01,2013-07-13 14:49:00,
2013-07-13 10:54:00,74.5,71.7,29.68,NW,315,0.0,0.0,91,0.00,,,0.00,VWS V14.01,2013-07-13 14:54:00,
2013-07-13 10:59:00,74.5,71.4,29.68,North,0,0.0,0.0,90,0.00,,,0.00,VWS V14.01,2013-07-13 14:59:00,
2013-07-13 11:04:00,74.8,71.7,29.68,NW,315,0.0,0.0,90,0.00,,,0.00,VWS V14.01,2013-07-13 15:04:00,
2013-07-13 11:09:00,74.8,71.7,29.68,SW,225,0.0,0.0,90,0.00,,,0.00,VWS V14.01,2013-07-13 15:09:00,
2013-07-13 11:14:00,75.0,71.9,29.68,WNW,292,0.0,0.0,90,0.00,,,0.00,VWS V14.01,2013-07-13 15:14:00,
2013-07-13 11:19:00,75.2,72.1,29.68,SE,135,0.0,0.0,90,0.00,,,0.00,VWS V14.01,2013-07-13 15:19:00,
2013-07-13 11:24:00,75.0,71.9,29.68,WNW,292,0.0,0.0,90,0.00,,,0.00,VWS V14.01,2013-07-13 15:24:00,
2013-07-13 11:29:00,75.0,71.6,29.68,NNW,338,0.0,0.0,89,0.00,,,0.00,VWS V14.01,2013-07-13 15:29:00,
2013-07-13 11:34:00,75.0,71.9,29.68,WSW,248,0.0,0.0,90,0.00,,,0.00,VWS V14.01,2013-07-13 15:34:00,
2013-07-13 11:39:00,75.0,71.9,29.68,WSW,248,0.0,0.0,90,0.00,,,0.00,VWS V14.01,2013-07-13 15:39:00,
2013-07-13 11:44:00,75.0,71.9,29.68,NNE,22,0.0,0.0,90,0.00,,,0.00,VWS V14.01,2013-07-13 15:44:00,
2013-07-13 11:50:00,75.0,71.9,29.68,West,270,0.0,0.0,90,0.00,,,0.00,VWS V14.01,2013-07-13 15:50:00,
2013-07-13 11:55:00,75.0,71.9,29.68,NNW,338,0.0,0.0,90,0.00,,,0.00,VWS V14.01,2013-07-13 15:55:00,
2013-07-13 12:00:00,75.2,72.1,29.68,NE,45,0.0,0.0,90,0.00,,,0.00,VWS V14.01,2013-07-13 16:00:00,
2013-07-13 12:05:00,75.2,72.1,29.68,NW,315,0.0,0.0,90,0.00,,,0.00,VWS V14.01,2013-07-13 16:05:00,
2013-07-13 12:10:00,75.6,72.4,29.68,NNE,22,0.0,0.0,90,0.00,,,0.00,VWS V14.01,2013-07-13 16:10:00,
2013-07-13 12:15:00,75.7,72.3,29.68,NW,315,0.0,0.0,89,0.00,,,0.00,VWS V14.01,2013-07-13 16:15:00,
2013-07-13 12:20:00,75.7,72.3,29.68,NNE,22,0.0,0.0,89,0.00,,,0.00,VWS V14.01,2013-07-13 16:20:00,
2013-07-13 12:25:00,75.9,72.4,29.68,NW,315,0.0,0.0,89,0.00,,,0.00,VWS V14.01,2013-07-13 16:25:00,
2013-07-13 12:30:00,75.9,72.4,29.68,West,270,0.0,0.0,89,0.00,,,0.00,VWS V14.01,2013-07-13 16:30:00,
2013-07-13 12:35:00,76.3,72.8,29.68,WSW,248,0.0,0.0,89,0.00,,,0.00,VWS V14.01,2013-07-13 16:35:00,
2013-07-13 12:40:00,76.5,73.0,29.68,East,90,0.0,0.0,89,0.00,,,0.00,VWS V14.01,2013-07-13 16:40:00,
2013-07-13 12:45:00,76.6,73.2,29.68,SSW,202,0.0,0.0,89,0.00,,,0.00,VWS V14.01,2013-07-13 16:45:00,
2013-07-13 12:50:00,76.6,73.2,29.68,West,270,0.0,0.0,89,0.00,,,0.00,VWS V14.01,2013-07-13 16:50:00,
2013-07-13 12:55:00,76.6,73.2,29.68,West,270,0.0,0.0,89,0.00,,,0.00,VWS V14.01,2013-07-13 16:55:00,
2013-07-13 13:00:00,76.8,73.3,29.68,WNW,292,0.0,0.0,89,0.00,,,0.00,VWS V14.01,2013-07-13 17:00:00,
2013-07-13 13:05:00,77.0,73.2,29.68,West,270,0.0,0.0,88,0.00,,,0.00,VWS V14.01,2013-07-13 17:05:00,
2013-07-13 13:10:00,77.0,73.2,29.68,NW,315,0.0,0.0,88,0.00,,,0.00,VWS V14.01,2013-07-13 17:10:00,
2013-07-13 13:15:00,77.0,73.2,29.68,NW,315,0.0,0.0,88,0.00,,,0.00,VWS V14.01,2013-07-13 17:15:00,
2013-07-13 13:20:00,77.0,73.2,29.68,NW,315,0.0,0.0,88,0.00,,,0.00,VWS V14.01,2013-07-13 17:20:00,
2013-07-13 13:25:00,76.8,73.3,29.68,WNW,292,0.0,0.0,89,0.00,,,0.00,VWS V14.01,2013-07-13 17:25:00,
2013-07-13 13:30:00,76.8,73.3,29.68,West,270,0.0,0.0,89,0.00,,,0.00,VWS V14.01,2013-07-13 17:30:00,
2013-07-13 13:35:00,76.8,73.3,29.68,West,270,0.0,0.0,89,0.00,,,0.00,VWS V14.01,2013-07-13 17:35:00,
2013-07-13 13:40:00,76.8,73.3,29.68,West,270,0.0,0.0,89,0.00,,,0.00,VWS V14.01,2013-07-13 17:40:00,
2013-07-13 13:46:00,76.6,73.5,29.68,NNW,338,0.0,0.0,90,0.00,,,0.00,VWS V14.01,2013-07-13 17:46:00,
2013-07-13 13:51:00,76.6,73.5,29.68,West,270,0.0,0.0,90,0.04,,,0.04,VWS V14.01,2013-07-13 17:51:00,
2013-07-13 13:56:00,76.6,73.5,29.68,NNW,338,0.0,0.0,90,0.04,,,0.04,VWS V14.01,2013-07-13 17:56:00,
2013-07-13 14:01:00,76.6,73.5,29.68,NW,315,0.0,0.0,90,0.04,,,0.04,VWS V14.01,2013-07-13 18:01:00,
2013-07-13 14:06:00,76.5,73.6,29.68,East,90,0.0,0.0,91,0.08,,,0.08,VWS V14.01,2013-07-13 18:06:00,
2013-07-13 14:11:00,76.5,73.6,29.68,South,180,0.0,0.0,91,0.08,,,0.08,VWS V14.01,2013-07-13 18:11:00,
2013-07-13 14:16:00,76.5,73.6,29.68,West,270,0.0,0.0,91,0.12,,,0.12,VWS V14.01,2013-07-13 18:16:00,
2013-07-13 14:21:00,76.5,73.6,29.68,SW,225,0.0,0.0,91,0.12,,,0.12,VWS V14.01,2013-07-13 18:21:00,
2013-07-13 14:26:00,76.5,73.6,29.68,WNW,292,0.0,0.0,91,0.12,,,0.12,VWS V14.01,2013-07-13 18:26:00,
2013-07-13 14:31:00,76.5,73.6,29.68,WNW,292,0.0,0.0,91,0.12,,,0.12,VWS V14.01,2013-07-13 18:31:00,
2013-07-13 14:36:00,76.5,73.6,29.68,West,270,0.0,0.0,91,0.16,,,0.16,VWS V14.01,2013-07-13 18:36:00,
2013-07-13 14:41:00,76.6,73.8,29.68,NNE,22,0.0,0.0,91,0.16,,,0.16,VWS V14.01,2013-07-13 18:41:00,
2013-07-13 14:46:00,76.5,73.6,29.68,WSW,248,0.0,0.0,91,0.16,,,0.16,VWS V14.01,2013-07-13 18:46:00,
2013-07-13 14:51:00,76.8,74.0,29.68,NW,315,0.0,0.0,91,0.12,,,0.16,VWS V14.01,2013-07-13 18:51:00,
2013-07-13 14:56:00,77.4,74.5,29.68,North,0,0.0,0.0,91,0.12,,,0.16,VWS V14.01,2013-07-13 18:56:00,
2013-07-13 15:01:00,77.4,74.2,29.68,NE,45,0.0,0.0,90,0.12,,,0.16,VWS V14.01,2013-07-13 19:01:00,
2013-07-13 15:06:00,77.7,74.6,29.68,WSW,248,0.0,0.0,90,0.08,,,0.16,VWS V14.01,2013-07-13 19:06:00,
2013-07-13 15:11:00,77.5,74.4,29.68,SW,225,0.0,0.0,90,0.08,,,0.16,VWS V14.01,2013-07-13 19:11:00,
2013-07-13 15:16:00,77.4,74.2,29.68,NW,315,0.0,0.0,90,0.04,,,0.16,VWS V14.01,2013-07-13 19:16:00,
2013-07-13 15:21:00,77.2,74.0,29.68,NW,315,0.0,0.0,90,0.04,,,0.16,VWS V14.01,2013-07-13 19:21:00,
2013-07-13 15:26:00,77.2,74.0,29.68,North,0,0.0,0.0,90,0.04,,,0.16,VWS V14.01,2013-07-13 19:26:00,
2013-07-13 15:31:00,77.2,74.0,29.68,NNW,338,0.0,0.0,90,0.04,,,0.16,VWS V14.01,2013-07-13 19:31:00,
2013-07-13 15:36:00,77.2,74.0,29.68,WNW,292,0.0,0.0,90,0.00,,,0.16,VWS V14.01,2013-07-13 19:36:00,
2013-07-13 15:41:00,77.2,74.0,29.68,North,0,0.0,0.0,90,0.00,,,0.16,VWS V14.01,2013-07-13 19:41:00,
2013-07-13 15:47:00,77.4,74.2,29.68,North,0,0.0,0.0,90,0.00,,,0.16,VWS V14.01,2013-07-13 19:47:00,
2013-07-13 15:52:00,77.2,74.0,29.68,West,270,0.0,0.0,90,0.00,,,0.16,VWS V14.01,2013-07-13 19:52:00,
2013-07-13 15:57:00,77.2,74.3,29.68,East,90,0.0,0.0,91,0.00,,,0.16,VWS V14.01,2013-07-13 19:57:00,
2013-07-13 16:02:00,77.0,73.8,29.68,NNE,22,0.0,0.0,90,0.00,,,0.16,VWS V14.01,2013-07-13 20:02:00,
2013-07-13 16:07:00,77.0,74.2,29.68,NW,315,0.0,0.0,91,0.00,,,0.16,VWS V14.01,2013-07-13 20:07:00,
2013-07-13 16:12:00,76.8,74.0,29.68,East,90,0.0,0.0,91,0.04,,,0.20,VWS V14.01,2013-07-13 20:12:00,
2013-07-13 16:17:00,76.6,73.8,29.68,NW,315,0.0,0.0,91,0.04,,,0.20,VWS V14.01,2013-07-13 20:17:00,
2013-07-13 16:22:00,76.6,73.8,29.68,WNW,292,0.0,0.0,91,0.04,,,0.20,VWS V14.01,2013-07-13 20:22:00,
2013-07-13 16:27:00,76.6,73.8,29.68,NW,315,0.0,0.0,91,0.04,,,0.20,VWS V14.01,2013-07-13 20:27:00,
2013-07-13 16:32:00,76.8,74.0,29.68,WSW,248,0.0,0.0,91,0.04,,,0.20,VWS V14.01,2013-07-13 20:32:00,
2013-07-13 16:37:00,76.8,74.3,29.68,North,0,0.0,0.0,92,0.04,,,0.20,VWS V14.01,2013-07-13 20:37:00,
2013-07-13 16:42:00,76.8,74.3,29.68,NW,315,0.0,0.0,92,0.04,,,0.20,VWS V14.01,2013-07-13 20:42:00,
2013-07-13 16:47:00,77.0,74.2,29.68,NNW,338,0.0,0.0,91,0.04,,,0.20,VWS V14.01,2013-07-13 20:47:00,
2013-07-13 16:52:00,77.0,74.2,29.68,SW,225,0.0,0.0,91,0.04,,,0.20,VWS V14.01,2013-07-13 20:52:00,
2013-07-13 16:57:00,77.2,74.3,29.68,West,270,0.0,0.0,91,0.04,,,0.20,VWS V14.01,2013-07-13 20:57:00,
2013-07-13 17:02:00,77.2,74.7,29.68,WNW,292,0.0,0.0,92,0.04,,,0.20,VWS V14.01,2013-07-13 21:02:00,
2013-07-13 17:07:00,77.4,74.9,29.68,North,0,0.0,0.0,92,0.04,,,0.20,VWS V14.01,2013-07-13 21:07:00,
2013-07-13 17:12:00,77.7,75.2,29.68,NW,315,0.0,0.0,92,0.00,,,0.20,VWS V14.01,2013-07-13 21:12:00,
2013-07-13 17:17:00,77.5,74.7,29.68,NNW,338,0.0,0.0,91,0.00,,,0.20,VWS V14.01,2013-07-13 21:17:00,
2013-07-13 17:22:00,77.7,75.2,29.68,NNW,338,0.0,0.0,92,0.00,,,0.20,VWS V14.01,2013-07-13 21:22:00,
2013-07-13 17:27:00,77.7,75.2,29.68,SW,225,0.0,0.0,92,0.00,,,0.20,VWS V14.01,2013-07-13 21:27:00,
2013-07-13 17:33:00,77.7,75.2,29.68,South,180,0.0,0.0,92,0.00,,,0.20,VWS V14.01,2013-07-13 21:33:00,
2013-07-13 17:38:00,77.5,75.0,29.68,ESE,112,0.0,0.0,92,0.00,,,0.20,VWS V14.01,2013-07-13 21:38:00,
2013-07-13 17:43:00,77.5,75.0,29.68,SE,135,0.0,0.0,92,0.00,,,0.20,VWS V14.01,2013-07-13 21:43:00,
2013-07-13 17:48:00,77.5,75.0,29.68,East,90,0.0,0.0,92,0.00,,,0.20,VWS V14.01,2013-07-13 21:48:00,
2013-07-13 17:53:00,77.5,74.7,29.68,East,90,0.0,0.0,91,0.00,,,0.20,VWS V14.01,2013-07-13 21:53:00,
2013-07-13 17:58:00,77.5,74.7,29.68,ENE,68,0.0,0.0,91,0.00,,,0.20,VWS V14.01,2013-07-13 21:58:00,
2013-07-13 18:03:00,77.5,74.7,29.68,SSE,158,0.0,0.0,91,0.00,,,0.20,VWS V14.01,2013-07-13 22:03:00,
2013-07-13 18:08:00,77.5,74.7,29.65,WSW,248,0.0,0.0,91,0.00,,,0.20,VWS V14.01,2013-07-13 22:08:00,
2013-07-13 18:13:00,77.5,74.7,29.65,SE,135,0.0,0.0,91,0.00,,,0.20,VWS V14.01,2013-07-13 22:13:00,
2013-07-13 18:18:00,77.5,74.7,29.65,South,180,0.0,0.0,91,0.00,,,0.20,VWS V14.01,2013-07-13 22:18:00,
2013-07-13 18:23:00,77.5,74.7,29.68,NW,315,0.0,0.0,91,0.00,,,0.20,VWS V14.01,2013-07-13 22:23:00,
2013-07-13 18:28:00,77.5,74.7,29.68,NW,315,0.0,0.0,91,0.00,,,0.20,VWS V14.01,2013-07-13 22:28:00,
2013-07-13 18:33:00,77.5,74.7,29.68,NW,315,0.0,0.0,91,0.00,,,0.20,VWS V14.01,2013-07-13 22:33:00,
2013-07-13 18:38:00,77.5,74.7,29.68,West,270,0.0,0.0,91,0.00,,,0.20,VWS V14.01,2013-07-13 22:38:00,
2013-07-13 18:43:00,77.4,74.5,29.68,NW,315,0.0,0.0,91,0.00,,,0.20,VWS V14.01,2013-07-13 22:43:00,
2013-07-13 18:48:00,77.4,74.5,29.68,NW,315,0.0,0.0,91,0.00,,,0.20,VWS V14.01,2013-07-13 22:48:00,
2013-07-13 18:53:00,77.4,74.5,29.68,WNW,292,0.0,0.0,91,0.00,,,0.20,VWS V14.01,2013-07-13 22:53:00,
2013-07-13 18:58:00,77.2,74.3,29.68,NE,45,0.0,0.0,91,0.00,,,0.20,VWS V14.01,2013-07-13 22:58:00,
2013-07-13 19:03:00,77.2,74.3,29.68,NE,45,0.0,0.0,91,0.00,,,0.20,VWS V14.01,2013-07-13 23:03:00,
2013-07-13 19:08:00,77.0,74.2,29.68,NE,45,0.0,0.0,91,0.00,,,0.20,VWS V14.01,2013-07-13 23:08:00,
2013-07-13 19:13:00,76.8,74.0,29.68,NE,45,0.0,0.0,91,0.00,,,0.20,VWS V14.01,2013-07-13 23:13:00,
2013-07-13 19:18:00,76.8,74.3,29.68,North,0,0.0,0.0,92,0.00,,,0.20,VWS V14.01,2013-07-13 23:18:00,
2013-07-13 19:23:00,76.8,74.3,29.68,North,0,0.0,0.0,92,0.00,,,0.20,VWS V14.01,2013-07-13 23:23:00,
2013-07-13 19:29:00,76.6,74.2,29.68,NNW,338,0.0,0.0,92,0.00,,,0.20,VWS V14.01,2013-07-13 23:29:00,
2013-07-13 19:34:00,76.6,74.2,29.68,NNE,22,0.0,0.0,92,0.00,,,0.20,VWS V14.01,2013-07-13 23:34:00,
2013-07-13 19:39:00,76.5,74.0,29.68,NNW,338,0.0,0.0,92,0.00,,,0.20,VWS V14.01,2013-07-13 23:39:00,
2013-07-13 19:44:00,76.5,74.0,29.68,NNW,338,0.0,0.0,92,0.00,,,0.20,VWS V14.01,2013-07-13 23:44:00,
2013-07-13 19:49:00,76.3,73.8,29.68,NNW,338,0.0,0.0,92,0.00,,,0.20,VWS V14.01,2013-07-13 23:49:00,
2013-07-13 19:54:00,76.3,73.8,29.68,NNW,338,0.0,0.0,92,0.00,,,0.20,VWS V14.01,2013-07-13 23:54:00,
2013-07-13 19:59:00,76.1,73.6,29.68,ESE,112,0.0,0.0,92,0.00,,,0.20,VWS V14.01,2013-07-13 23:59:00,
2013-07-13 20:04:00,76.1,73.6,29.68,North,0,0.0,0.0,92,0.00,,,0.20,VWS V14.01,2013-07-14 00:04:00,
2013-07-13 20:09:00,75.9,73.4,29.71,North,0,0.0,0.0,92,0.00,,,0.20,VWS V14.01,2013-07-14 00:09:00,
2013-07-13 20:14:00,75.9,73.4,29.71,North,0,0.0,0.0,92,0.00,,,0.20,VWS V14.01,2013-07-14 00:14:00,
2013-07-13 20:19:00,75.7,73.2,29.71,North,0,0.0,0.0,92,0.00,,,0.20,VWS V14.01,2013-07-14 00:19:00,
2013-07-13 20:24:00,75.6,73.1,29.71,South,180,0.0,0.0,92,0.00,,,0.20,VWS V14.01,2013-07-14 00:24:00,
2013-07-13 20:29:00,75.6,73.1,29.71,North,0,0.0,0.0,92,0.00,,,0.20,VWS V14.01,2013-07-14 00:29:00,
2013-07-13 20:34:00,75.4,72.9,29.71,NNW,338,0.0,0.0,92,0.00,,,0.20,VWS V14.01,2013-07-14 00:34:00,
2013-07-13 20:39:00,75.2,72.7,29.71,SE,135,0.0,0.0,92,0.00,,,0.20,VWS V14.01,2013-07-14 00:39:00,
2013-07-13 20:44:00,75.2,72.7,29.71,NNW,338,0.0,0.0,92,0.00,,,0.20,VWS V14.01,2013-07-14 00:44:00,
2013-07-13 20:49:00,75.0,72.5,29.71,SW,225,0.0,0.0,92,0.00,,,0.20,VWS V14.01,2013-07-14 00:49:00,
2013-07-13 20:54:00,75.0,72.5,29.71,NW,315,0.0,0.0,92,0.00,,,0.20,VWS V14.01,2013-07-14 00:54:00,
2013-07-13 20:59:00,74.8,72.4,29.71,West,270,0.0,0.0,92,0.00,,,0.20,VWS V14.01,2013-07-14 00:59:00,
2013-07-13 21:05:00,74.7,72.2,29.71,WNW,292,0.0,0.0,92,0.00,,,0.20,VWS V14.01,2013-07-14 01:05:00,
2013-07-13 21:10:00,74.7,72.2,29.71,WNW,292,0.0,0.0,92,0.00,,,0.20,VWS V14.01,2013-07-14 01:10:00,
2013-07-13 21:15:00,74.5,72.0,29.71,WNW,292,0.0,0.0,92,0.00,,,0.20,VWS V14.01,2013-07-14 01:15:00,
2013-07-13 21:20:00,74.5,72.0,29.71,WNW,292,0.0,0.0,92,0.00,,,0.20,VWS V14.01,2013-07-14 01:20:00,
2013-07-13 21:25:00,74.5,72.0,29.71,NNW,338,0.0,0.0,92,0.00,,,0.20,VWS V14.01,2013-07-14 01:25:00,
2013-07-13 21:30:00,74.5,72.3,29.71,SSW,202,0.0,0.0,93,0.00,,,0.20,VWS V14.01,2013-07-14 01:30:00,
2013-07-13 21:35:00,74.3,72.2,29.71,NNW,338,0.0,0.0,93,0.00,,,0.20,VWS V14.01,2013-07-14 01:35:00,
2013-07-13 21:40:00,74.5,72.3,29.71,WSW,248,0.0,0.0,93,0.00,,,0.20,VWS V14.01,2013-07-14 01:40:00,
2013-07-13 21:45:00,74.3,72.2,29.71,SW,225,0.0,0.0,93,0.00,,,0.20,VWS V14.01,2013-07-14 01:45:00,
2013-07-13 21:50:00,74.3,72.2,29.71,West,270,0.0,0.0,93,0.00,,,0.20,VWS V14.01,2013-07-14 01:50:00,
2013-07-13 21:55:00,74.1,72.0,29.71,West,270,0.0,0.0,93,0.00,,,0.20,VWS V14.01,2013-07-14 01:55:00,
2013-07-13 22:00:00,74.1,72.0,29.71,NW,315,0.0,0.0,93,0.00,,,0.20,VWS V14.01,2013-07-14 02:00:00,
2013-07-13 22:05:00,74.1,72.0,29.71,NNW,338,0.0,0.0,93,0.00,,,0.20,VWS V14.01,2013-07-14 02:05:00,
2013-07-13 22:10:00,73.9,71.8,29.71,WSW,248,0.0,0.0,93,0.00,,,0.20,VWS V14.01,2013-07-14 02:10:00,
2013-07-13 22:15:00,73.9,71.8,29.71,SSW,202,0.0,0.0,93,0.00,,,0.20,VWS V14.01,2013-07-14 02:15:00,
2013-07-13 22:16:00,73.9,71.8,29.71,South,180,0.0,0.0,93,0.00,,,0.20,VWS V14.01,2013-07-14 02:16:00,
2013-07-13 22:21:00,73.8,71.6,29.71,North,0,0.0,0.0,93,0.00,,,0.20,VWS V14.01,2013-07-14 02:21:00,
2013-07-13 22:26:00,73.8,71.6,29.74,North,0,0.0,0.0,93,0.00,,,0.20,VWS V14.01,2013-07-14 02:26:00,
2013-07-13 22:31:00,73.6,71.4,29.74,West,270,0.0,0.0,93,0.00,,,0.20,VWS V14.01,2013-07-14 02:31:00,
2013-07-13 22:36:00,73.6,71.4,29.74,West,270,0.0,0.0,93,0.00,,,0.20,VWS V14.01,2013-07-14 02:36:00,
2013-07-13 22:41:00,73.6,71.4,29.74,West,270,0.0,0.0,93,0.00,,,0.20,VWS V14.01,2013-07-14 02:41:00,
2013-07-13 22:46:00,73.4,71.3,29.74,West,270,0.0,0.0,93,0.00,,,0.20,VWS V14.01,2013-07-14 02:46:00,
2013-07-13 22:51:00,73.4,71.3,29.74,West,270,0.0,0.0,93,0.00,,,0.20,VWS V14.01,2013-07-14 02:51:00,
2013-07-13 22:56:00,73.4,71.3,29.74,SW,225,0.0,0.0,93,0.00,,,0.20,VWS V14.01,2013-07-14 02:56:00,
2013-07-13 23:01:00,73.4,71.3,29.74,SW,225,0.0,0.0,93,0.00,,,0.20,VWS V14.01,2013-07-14 03:01:00,
2013-07-13 23:06:00,73.2,71.1,29.74,SW,225,0.0,0.0,93,0.00,,,0.20,VWS V14.01,2013-07-14 03:06:00,
2013-07-13 23:11:00,73.2,71.1,29.74,SW,225,0.0,0.0,93,0.00,,,0.20,VWS V14.01,2013-07-14 03:11:00,
2013-07-13 23:16:00,73.0,70.9,29.74,SW,225,0.0,0.0,93,0.00,,,0.20,VWS V14.01,2013-07-14 03:16:00,
2013-07-13 23:21:00,73.0,70.9,29.74,SW,225,0.0,0.0,93,0.00,,,0.20,VWS V14.01,2013-07-14 03:21:00,
2013-07-13 23:26:00,73.0,71.2,29.74,SW,225,0.0,0.0,94,0.00,,,0.20,VWS V14.01,2013-07-14 03:26:00,
2013-07-13 23:31:00,72.9,71.0,29.74,SW,225,0.0,0.0,94,0.00,,,0.20,VWS V14.01,2013-07-14 03:31:00,
2013-07-13 23:36:00,72.9,71.0,29.74,SW,225,0.0,0.0,94,0.00,,,0.20,VWS V14.01,2013-07-14 03:36:00,
2013-07-13 23:41:00,72.9,71.0,29.74,SW,225,0.0,0.0,94,0.00,,,0.20,VWS V14.01,2013-07-14 03:41:00,
2013-07-13 23:47:00,72.9,71.0,29.74,NW,315,0.0,0.0,94,0.00,,,0.20,VWS V14.01,2013-07-14 03:47:00,
2013-07-13 23:52:00,72.9,71.0,29.74,NW,315,0.0,0.0,94,0.00,,,0.20,VWS V14.01,2013-07-14 03:52:00,
2013-07-13 23:57:00,72.9,71.0,29.76,WSW,248,0.0,0.0,94,0.00,,,0.20,VWS V14.01,2013-07-14 03:57:00,